Location: Newark
(15.4608°S, 41.1635°W)
Time: 09:32:15
(UTC+00:00)

Tiros 1 - Visible Passes

Search period start: 01 March 2021 00:00
Search period end: 11 March 2021 00:00
Orbit: 630 x 664 km, 48.4° (Epoch: 01 March)

Date Brightness Start Highest point End Pass type
(mag) Time Alt. Az. Time Alt. Az. Time Alt. Az.
08 Mar 9.6 23:11:06 10° SSW 23:12:01 15° S 23:12:01 15° S visible
09 Mar 9.3 21:58:09 10° SSE 21:58:45 10° SE 21:59:21 10° SE visible
09 Mar 9.9 23:36:34 10° SW 23:37:11 14° SW 23:37:11 14° SW visible
10 Mar 8.3 22:21:03 10° SSW 22:24:47 28° SE 22:24:47 28° SE visible
